FUA1404 EGNJ-LEMH

Flight info

Callsign FUA1404
Flight time 2h 16m
Altitude 35000
Route GOLES L975 BARTN L612 HON N859 SITET A34 AMB R10 LMG G36 GAI B31 PUMAL N859 BCN Q700 SARGO
Aircraft B738/M-SDE2E3FGHIRWXY/LB1

Departure

Time 2026-04-22 19:58
Airport Humberside Airport (EGNJ)

Arrival

Time 2026-04-22 22:14
Airport Menorca Airport (LEMH)
Time Latitude Longitude Altitude Speed Heading
2026-04-22 18:50 53.58263 -0.34911 82 ft 0 kts 44°
2026-04-22 19:48 53.58256 -0.34922 85 ft 4 kts 44°
2026-04-22 19:48 53.58237 -0.34953 87 ft 4 kts 46°
2026-04-22 19:49 53.58224 -0.34990 85 ft 4 kts 81°
2026-04-22 19:49 53.58221 -0.35031 85 ft 2 kts 75°
2026-04-22 19:49 53.58221 -0.35007 83 ft 4 kts 96°
2026-04-22 19:49 53.58207 -0.34974 85 ft 3 kts 134°
2026-04-22 19:50 53.58201 -0.34965 83 ft 0 kts 134°
2026-04-22 19:52 53.58195 -0.34954 87 ft 3 kts 134°
2026-04-22 19:53 53.58174 -0.34905 82 ft 8 kts 124°
2026-04-22 19:53 53.58124 -0.34828 84 ft 11 kts 141°
2026-04-22 19:53 53.58067 -0.34754 89 ft 10 kts 149°
2026-04-22 19:53 53.57998 -0.34722 90 ft 12 kts 176°
2026-04-22 19:54 53.57904 -0.34759 92 ft 15 kts 197°
2026-04-22 19:54 53.57801 -0.34824 95 ft 16 kts 204°
2026-04-22 19:54 53.57693 -0.34903 99 ft 17 kts 202°
2026-04-22 19:54 53.57578 -0.34982 102 ft 19 kts 202°
2026-04-22 19:55 53.57457 -0.35064 105 ft 19 kts 202°
2026-04-22 19:55 53.57340 -0.35148 106 ft 19 kts 202°
2026-04-22 19:55 53.57215 -0.35235 108 ft 20 kts 202°
2026-04-22 19:55 53.57075 -0.35327 110 ft 22 kts 202°
2026-04-22 19:56 53.56935 -0.35426 112 ft 22 kts 203°
2026-04-22 19:56 53.56792 -0.35527 122 ft 22 kts 202°
2026-04-22 19:56 53.56654 -0.35622 125 ft 19 kts 202°
2026-04-22 19:56 53.56575 -0.35711 128 ft 10 kts 227°
2026-04-22 19:57 53.56562 -0.35699 127 ft 3 kts 73°
2026-04-22 19:57 53.56591 -0.35666 126 ft 2 kts 22°
2026-04-22 19:57 53.56594 -0.35665 126 ft 2 kts 22°
2026-04-22 19:57 53.56748 -0.35557 122 ft 65 kts 22°
2026-04-22 19:58 53.57443 -0.35078 105 ft 146 kts 22°
2026-04-22 19:58 53.58513 -0.34352 624 ft 169 kts 21°
2026-04-22 19:58 53.59631 -0.33887 1789 ft 169 kts 357°
2026-04-22 19:58 53.60743 -0.34820 2424 ft 203 kts 316°
2026-04-22 19:59 53.61507 -0.37052 2718 ft 240 kts 290°
2026-04-22 20:00 53.61438 -0.56438 7672 ft 290 kts 266°
2026-04-22 20:00 53.61394 -0.59854 8636 ft 294 kts 266°
2026-04-22 20:01 53.61352 -0.63321 9564 ft 297 kts 266°
2026-04-22 20:01 53.61311 -0.66821 10525 ft 299 kts 266°
2026-04-22 20:01 53.61269 -0.70370 11222 ft 313 kts 266°
2026-04-22 20:01 53.61222 -0.74199 11444 ft 340 kts 266°
2026-04-22 20:02 53.61172 -0.78336 11763 ft 362 kts 266°
2026-04-22 20:02 53.61123 -0.82602 12487 ft 368 kts 267°
2026-04-22 20:02 53.61073 -0.86933 13343 ft 370 kts 267°
2026-04-22 20:02 53.61023 -0.91293 14158 ft 374 kts 267°
2026-04-22 20:03 53.60966 -0.95666 14949 ft 377 kts 267°
2026-04-22 20:03 53.60908 -1.00120 15696 ft 381 kts 267°
2026-04-22 20:03 53.60848 -1.04547 16400 ft 385 kts 267°
2026-04-22 20:03 53.60762 -1.09075 17110 ft 388 kts 264°
2026-04-22 20:04 53.60404 -1.13585 17824 ft 390 kts 258°
2026-04-22 20:04 53.59915 -1.18087 18502 ft 393 kts 258°
2026-04-22 20:04 53.59428 -1.22640 19144 ft 397 kts 259°
2026-04-22 20:04 53.58958 -1.27243 19771 ft 401 kts 259°
2026-04-22 20:05 53.58500 -1.31893 20377 ft 404 kts 260°
2026-04-22 20:05 53.58041 -1.36571 20972 ft 407 kts 260°
2026-04-22 20:05 53.57579 -1.41291 21567 ft 410 kts 261°
2026-04-22 20:05 53.57118 -1.46032 22185 ft 411 kts 261°
2026-04-22 20:06 53.56644 -1.50802 22752 ft 414 kts 261°
2026-04-22 20:06 53.56161 -1.55607 23226 ft 418 kts 261°
2026-04-22 20:06 53.55676 -1.60408 23641 ft 424 kts 262°
2026-04-22 20:06 53.55178 -1.65316 24147 ft 426 kts 262°
2026-04-22 20:07 53.54679 -1.70228 24660 ft 428 kts 262°
2026-04-22 20:07 53.54175 -1.75168 25180 ft 429 kts 262°
2026-04-22 20:07 53.53668 -1.80121 25661 ft 431 kts 262°
2026-04-22 20:07 53.53156 -1.85112 26107 ft 433 kts 262°
2026-04-22 20:08 53.52639 -1.90109 26555 ft 434 kts 262°
2026-04-22 20:08 53.52125 -1.95063 26984 ft 436 kts 262°
2026-04-22 20:08 53.51795 -1.98236 27244 ft 438 kts 262°
2026-04-22 20:08 53.51266 -2.03296 27609 ft 440 kts 262°
2026-04-22 20:09 53.50736 -2.08354 27993 ft 442 kts 262°
2026-04-22 20:09 53.50199 -2.13447 28391 ft 443 kts 262°
2026-04-22 20:09 53.49660 -2.18541 28750 ft 444 kts 262°
2026-04-22 20:09 53.48974 -2.23595 29069 ft 449 kts 251°
2026-04-22 20:10 53.47402 -2.28185 29368 ft 458 kts 233°
2026-04-22 20:10 53.45051 -2.31849 29816 ft 462 kts 217°
2026-04-22 20:10 53.42188 -2.34296 30313 ft 466 kts 201°
2026-04-22 20:10 53.38994 -2.35303 30802 ft 470 kts 185°
2026-04-22 20:11 53.35741 -2.34826 31176 ft 475 kts 167°
2026-04-22 20:11 53.32607 -2.32888 31544 ft 477 kts 158°
2026-04-22 20:11 53.29627 -2.30649 31919 ft 476 kts 158°
2026-04-22 20:11 53.26584 -2.28425 32272 ft 476 kts 159°
2026-04-22 20:12 53.23531 -2.26282 32645 ft 475 kts 159°
2026-04-22 20:12 53.20479 -2.24168 33020 ft 474 kts 159°
2026-04-22 20:12 53.18464 -2.22772 33243 ft 473 kts 160°
2026-04-22 20:12 53.14441 -2.19984 33723 ft 472 kts 159°
2026-04-22 20:13 53.11420 -2.17889 34070 ft 471 kts 160°
2026-04-22 20:13 53.08385 -2.15789 34354 ft 472 kts 160°
2026-04-22 20:13 53.05351 -2.13693 34651 ft 472 kts 159°
2026-04-22 20:13 53.02318 -2.11601 35020 ft 470 kts 159°
2026-04-22 20:14 52.99306 -2.09525 35375 ft 469 kts 159°
2026-04-22 20:14 52.93218 -2.05339 35394 ft 473 kts 159°
2026-04-22 20:15 52.87208 -2.01216 35392 ft 469 kts 159°
2026-04-22 20:15 52.81176 -1.97092 35392 ft 467 kts 159°
2026-04-22 20:16 52.75174 -1.93002 35406 ft 466 kts 159°
2026-04-22 20:16 52.69161 -1.88917 35406 ft 467 kts 159°
2026-04-22 20:17 52.63163 -1.84853 35409 ft 468 kts 160°
2026-04-22 20:17 52.57115 -1.80766 35405 ft 470 kts 160°
2026-04-22 20:18 52.52062 -1.77364 35406 ft 472 kts 160°
2026-04-22 20:18 52.45984 -1.73279 35406 ft 473 kts 160°
2026-04-22 20:19 52.39867 -1.69180 35404 ft 474 kts 160°
2026-04-22 20:19 52.33717 -1.65227 35397 ft 475 kts 163°
2026-04-22 20:20 52.27444 -1.61934 35394 ft 474 kts 165°
2026-04-22 20:20 52.21119 -1.58745 35393 ft 474 kts 165°
2026-04-22 20:21 52.14864 -1.55539 35386 ft 475 kts 165°
2026-04-22 20:21 52.08577 -1.52285 35379 ft 474 kts 165°
2026-04-22 20:22 52.02265 -1.49021 35375 ft 474 kts 165°
2026-04-22 20:22 51.95986 -1.45785 35365 ft 473 kts 165°
2026-04-22 20:23 51.89743 -1.42580 35372 ft 472 kts 165°
2026-04-22 20:23 51.83468 -1.39367 35367 ft 471 kts 165°
2026-04-22 20:24 51.77211 -1.36173 35364 ft 471 kts 165°
2026-04-22 20:24 51.71005 -1.33016 35363 ft 470 kts 165°
2026-04-22 20:25 51.64749 -1.29840 35361 ft 470 kts 165°
2026-04-22 20:25 51.58493 -1.26678 35344 ft 471 kts 165°
2026-04-22 20:26 51.52241 -1.23525 35361 ft 471 kts 165°
2026-04-22 20:26 51.46097 -1.19949 35349 ft 474 kts 157°
2026-04-22 20:27 51.40133 -1.15344 35345 ft 474 kts 156°
2026-04-22 20:27 51.34161 -1.10909 35348 ft 474 kts 158°
2026-04-22 20:28 51.28152 -1.06533 35347 ft 475 kts 158°
2026-04-22 20:28 51.22133 -1.02141 35362 ft 475 kts 158°
2026-04-22 20:29 51.16145 -0.97782 35345 ft 476 kts 158°
2026-04-22 20:29 51.10122 -0.93410 35345 ft 476 kts 158°
2026-04-22 20:30 51.04082 -0.89036 35339 ft 476 kts 158°
2026-04-22 20:30 50.98045 -0.84677 35342 ft 476 kts 158°
2026-04-22 20:31 50.92037 -0.80352 35329 ft 476 kts 158°
2026-04-22 20:31 50.86005 -0.75998 35324 ft 477 kts 156°
2026-04-22 20:32 50.80361 -0.70399 35315 ft 479 kts 147°
2026-04-22 20:32 50.74903 -0.64348 35308 ft 479 kts 147°
2026-04-22 20:33 50.69412 -0.58468 35296 ft 479 kts 148°
2026-04-22 20:33 50.63871 -0.52598 35294 ft 479 kts 148°
2026-04-22 20:34 50.58349 -0.46757 35299 ft 479 kts 148°
2026-04-22 20:34 50.52811 -0.40916 35292 ft 478 kts 148°
2026-04-22 20:35 50.47308 -0.35129 35296 ft 478 kts 148°
2026-04-22 20:35 50.41766 -0.29314 35295 ft 478 kts 148°
2026-04-22 20:36 50.36240 -0.23532 35295 ft 478 kts 148°
2026-04-22 20:36 50.30690 -0.17741 35293 ft 478 kts 148°
2026-04-22 20:37 50.25139 -0.11965 35284 ft 479 kts 148°
2026-04-22 20:37 50.19546 -0.06443 35267 ft 477 kts 156°
2026-04-22 20:38 50.13473 -0.02379 35280 ft 475 kts 159°
2026-04-22 20:38 50.07301 0.01304 35260 ft 472 kts 168°
2026-04-22 20:39 50.00867 0.03763 35256 ft 481 kts 170°
2026-04-22 20:39 49.94271 0.06211 35274 ft 493 kts 169°
2026-04-22 20:40 49.87626 0.08786 35267 ft 496 kts 168°
2026-04-22 20:40 49.80925 0.11420 35245 ft 497 kts 168°
2026-04-22 20:41 49.74216 0.14044 35246 ft 496 kts 169°
2026-04-22 20:41 49.67512 0.16654 35241 ft 495 kts 168°
2026-04-22 20:42 49.60895 0.19306 35262 ft 493 kts 168°
2026-04-22 20:42 49.54266 0.21993 35268 ft 491 kts 168°
2026-04-22 20:43 49.47681 0.24643 35267 ft 489 kts 168°
2026-04-22 20:43 49.41110 0.27271 35250 ft 488 kts 168°
2026-04-22 20:44 49.34557 0.29885 35245 ft 487 kts 168°
2026-04-22 20:44 49.27993 0.32544 35238 ft 487 kts 167°
2026-04-22 20:45 49.21475 0.35381 35240 ft 488 kts 167°
2026-04-22 20:45 49.14969 0.38209 35248 ft 488 kts 167°
2026-04-22 20:46 49.05149 0.42360 35246 ft 489 kts 168°
2026-04-22 20:46 48.98567 0.45049 35249 ft 489 kts 168°
2026-04-22 20:47 48.92008 0.47729 35239 ft 490 kts 168°
2026-04-22 20:47 48.85423 0.50428 35240 ft 490 kts 168°
2026-04-22 20:48 48.78822 0.53125 35239 ft 491 kts 168°
2026-04-22 20:48 48.72218 0.55787 35242 ft 490 kts 168°
2026-04-22 20:49 48.65620 0.58427 35241 ft 490 kts 168°
2026-04-22 20:49 48.59056 0.61052 35229 ft 491 kts 168°
2026-04-22 20:50 48.52446 0.63692 35228 ft 490 kts 168°
2026-04-22 20:50 48.45845 0.66319 35226 ft 490 kts 168°
2026-04-22 20:51 48.39292 0.68916 35218 ft 489 kts 168°
2026-04-22 20:51 48.32688 0.71530 35206 ft 489 kts 168°
2026-04-22 20:52 48.26102 0.74130 35216 ft 489 kts 168°
2026-04-22 20:52 48.19529 0.76720 35216 ft 489 kts 168°
2026-04-22 20:53 48.12965 0.79305 35206 ft 489 kts 168°
2026-04-22 20:53 48.06382 0.81893 35203 ft 489 kts 168°
2026-04-22 20:54 47.99794 0.84475 35208 ft 489 kts 168°
2026-04-22 20:54 47.93218 0.87037 35212 ft 489 kts 169°
2026-04-22 20:55 47.86659 0.89582 35191 ft 489 kts 169°
2026-04-22 20:55 47.80042 0.92147 35198 ft 489 kts 169°
2026-04-22 20:56 47.73442 0.94701 35191 ft 489 kts 169°
2026-04-22 20:56 47.66841 0.97250 35198 ft 490 kts 169°
2026-04-22 20:57 47.60296 0.99770 35185 ft 490 kts 169°
2026-04-22 20:57 47.53666 1.02318 35184 ft 490 kts 169°
2026-04-22 20:58 47.47053 1.04853 35183 ft 490 kts 169°
2026-04-22 20:58 47.40401 1.06572 35177 ft 482 kts 184°
2026-04-22 20:59 47.33693 1.06361 35182 ft 480 kts 187°
2026-04-22 20:59 47.27038 1.06088 35182 ft 481 kts 186°
2026-04-22 21:00 47.20353 1.05904 35176 ft 481 kts 186°
2026-04-22 21:00 47.13670 1.05755 35173 ft 481 kts 186°
2026-04-22 21:01 47.06943 1.05602 35174 ft 481 kts 186°
2026-04-22 21:01 47.00292 1.05429 35164 ft 481 kts 186°
2026-04-22 21:02 46.93552 1.05116 35164 ft 480 kts 187°
2026-04-22 21:02 46.86912 1.04815 35164 ft 480 kts 187°
2026-04-22 21:03 46.80227 1.04534 35162 ft 480 kts 187°
2026-04-22 21:03 46.73580 1.04256 35155 ft 480 kts 186°
2026-04-22 21:04 46.66911 1.03976 35145 ft 479 kts 186°
2026-04-22 21:04 46.60240 1.03695 35147 ft 479 kts 186°
2026-04-22 21:05 46.53553 1.03415 35135 ft 479 kts 186°
2026-04-22 21:05 46.46884 1.03216 35128 ft 479 kts 185°
2026-04-22 21:06 46.40249 1.03169 35131 ft 479 kts 185°
2026-04-22 21:06 46.33580 1.03127 35121 ft 480 kts 185°
2026-04-22 21:07 46.26946 1.03060 35119 ft 479 kts 185°
2026-04-22 21:07 46.20260 1.02985 35111 ft 479 kts 185°
2026-04-22 21:08 46.14708 1.02923 35104 ft 479 kts 185°
2026-04-22 21:08 46.08017 1.02849 35106 ft 479 kts 185°
2026-04-22 21:09 46.01353 1.02774 35110 ft 478 kts 185°
2026-04-22 21:09 45.94725 1.02702 35106 ft 478 kts 185°
2026-04-22 21:10 45.88078 1.02630 35099 ft 478 kts 185°
2026-04-22 21:10 45.81403 1.02872 35086 ft 483 kts 176°
2026-04-22 21:11 45.74889 1.05315 35109 ft 487 kts 165°
2026-04-22 21:11 45.68449 1.08303 35104 ft 487 kts 165°
2026-04-22 21:12 45.61961 1.11237 35097 ft 487 kts 166°
2026-04-22 21:12 45.55479 1.14096 35102 ft 487 kts 166°
2026-04-22 21:13 45.48994 1.16935 35085 ft 488 kts 166°
2026-04-22 21:13 45.42490 1.19781 35094 ft 489 kts 166°
2026-04-22 21:14 45.35981 1.22626 35095 ft 489 kts 166°
2026-04-22 21:14 45.29501 1.25449 35088 ft 490 kts 166°
2026-04-22 21:15 45.22968 1.28288 35096 ft 490 kts 166°
2026-04-22 21:15 45.16423 1.31127 35083 ft 491 kts 166°
2026-04-22 21:16 45.09923 1.33941 35097 ft 491 kts 166°
2026-04-22 21:16 45.03387 1.36762 35095 ft 491 kts 166°
2026-04-22 21:17 44.96838 1.39583 35100 ft 491 kts 166°
2026-04-22 21:17 44.90293 1.42396 35100 ft 491 kts 166°
2026-04-22 21:18 44.83775 1.45230 35111 ft 491 kts 166°
2026-04-22 21:18 44.77250 1.48087 35100 ft 491 kts 166°
2026-04-22 21:19 44.70748 1.50811 35102 ft 490 kts 167°
2026-04-22 21:19 44.64200 1.53534 35103 ft 490 kts 166°
2026-04-22 21:20 44.57667 1.56317 35108 ft 489 kts 166°
2026-04-22 21:20 44.51202 1.59084 35110 ft 489 kts 166°
2026-04-22 21:21 44.44673 1.61862 35118 ft 489 kts 166°
2026-04-22 21:21 44.38143 1.64630 35111 ft 490 kts 166°
2026-04-22 21:22 44.31592 1.67377 35103 ft 490 kts 166°
2026-04-22 21:22 44.25094 1.70084 35104 ft 490 kts 166°
2026-04-22 21:23 44.18540 1.72810 35108 ft 491 kts 166°
2026-04-22 21:23 44.11978 1.75537 35114 ft 491 kts 166°
2026-04-22 21:24 44.05454 1.78247 35121 ft 492 kts 166°
2026-04-22 21:24 43.98894 1.80970 35119 ft 492 kts 166°
2026-04-22 21:25 43.92234 1.82992 35129 ft 486 kts 179°
2026-04-22 21:25 43.85527 1.83713 35135 ft 485 kts 180°
2026-04-22 21:26 43.78775 1.84410 35134 ft 486 kts 179°
2026-04-22 21:26 43.72020 1.85180 35133 ft 486 kts 179°
2026-04-22 21:27 43.65272 1.85979 35137 ft 486 kts 179°
2026-04-22 21:27 43.58561 1.86774 35135 ft 486 kts 179°
2026-04-22 21:28 43.51816 1.87568 35142 ft 486 kts 179°
2026-04-22 21:28 43.45105 1.88355 35149 ft 485 kts 179°
2026-04-22 21:29 43.38385 1.89140 35148 ft 485 kts 179°
2026-04-22 21:29 43.31646 1.89933 35147 ft 484 kts 179°
2026-04-22 21:30 43.24937 1.90769 35144 ft 484 kts 178°
2026-04-22 21:30 43.18229 1.91614 35150 ft 484 kts 178°
2026-04-22 21:31 43.11517 1.92450 35146 ft 483 kts 178°
2026-04-22 21:31 43.04853 1.93260 35134 ft 483 kts 179°
2026-04-22 21:32 42.98156 1.94012 35140 ft 483 kts 179°
2026-04-22 21:32 42.91457 1.94753 35135 ft 482 kts 179°
2026-04-22 21:33 42.84756 1.95499 35131 ft 482 kts 178°
2026-04-22 21:33 42.78068 1.96247 35124 ft 482 kts 178°
2026-04-22 21:34 42.71408 1.96992 35124 ft 482 kts 178°
2026-04-22 21:34 42.64709 1.97738 35105 ft 482 kts 178°
2026-04-22 21:35 42.58027 1.98483 35072 ft 483 kts 178°
2026-04-22 21:35 42.51324 1.99226 35068 ft 482 kts 178°
2026-04-22 21:36 42.44634 1.99968 35060 ft 482 kts 178°
2026-04-22 21:36 42.37980 2.00704 35056 ft 483 kts 178°
2026-04-22 21:37 42.31287 2.01394 35048 ft 483 kts 179°
2026-04-22 21:37 42.24591 2.02014 35058 ft 483 kts 179°
2026-04-22 21:38 42.17866 2.02636 35064 ft 483 kts 179°
2026-04-22 21:38 42.11169 2.03265 35062 ft 483 kts 179°
2026-04-22 21:39 42.04449 2.03900 35079 ft 483 kts 179°
2026-04-22 21:39 41.97771 2.04529 35081 ft 483 kts 179°
2026-04-22 21:40 41.91074 2.05158 35100 ft 484 kts 179°
2026-04-22 21:40 41.84342 2.05790 35104 ft 484 kts 179°
2026-04-22 21:41 41.77619 2.06419 35112 ft 484 kts 179°
2026-04-22 21:41 41.70889 2.07048 35120 ft 485 kts 179°
2026-04-22 21:42 41.64186 2.07671 35124 ft 484 kts 179°
2026-04-22 21:42 41.57458 2.08299 35128 ft 484 kts 179°
2026-04-22 21:43 41.50734 2.08926 35128 ft 484 kts 178°
2026-04-22 21:43 41.44005 2.09552 35134 ft 483 kts 178°
2026-04-22 21:44 41.37284 2.10174 35122 ft 484 kts 178°
2026-04-22 21:44 41.33978 2.11027 35111 ft 488 kts 160°
2026-04-22 21:44 41.31036 2.13131 35144 ft 488 kts 143°
2026-04-22 21:45 41.28538 2.16169 35121 ft 487 kts 127°
2026-04-22 21:45 41.26705 2.19916 35153 ft 483 kts 117°
2026-04-22 21:45 41.23505 2.27777 35130 ft 483 kts 116°
2026-04-22 21:46 41.20323 2.35635 35126 ft 483 kts 116°
2026-04-22 21:46 41.17077 2.43461 35127 ft 484 kts 117°
2026-04-22 21:47 41.13794 2.51275 35127 ft 484 kts 117°
2026-04-22 21:47 41.10516 2.59046 34582 ft 488 kts 117°
2026-04-22 21:48 41.08867 2.62950 33976 ft 484 kts 117°
2026-04-22 21:48 41.07220 2.66844 33338 ft 482 kts 117°
2026-04-22 21:48 41.05581 2.70717 32684 ft 481 kts 117°
2026-04-22 21:48 41.03949 2.74568 32190 ft 475 kts 117°
2026-04-22 21:49 41.02358 2.78317 31732 ft 470 kts 117°
2026-04-22 21:49 41.00765 2.82068 31272 ft 465 kts 118°
2026-04-22 21:49 40.99186 2.85782 30821 ft 459 kts 118°
2026-04-22 21:49 40.97627 2.89445 30366 ft 455 kts 118°
2026-04-22 21:50 40.96577 2.91908 30067 ft 452 kts 118°
2026-04-22 21:50 40.94544 2.96676 29470 ft 445 kts 118°
2026-04-22 21:50 40.93025 3.00232 29023 ft 441 kts 118°
2026-04-22 21:50 40.91538 3.03707 28581 ft 437 kts 118°
2026-04-22 21:51 40.90049 3.07185 28136 ft 433 kts 118°
2026-04-22 21:51 40.88566 3.10650 27694 ft 430 kts 119°
2026-04-22 21:51 40.87093 3.14082 27259 ft 427 kts 119°
2026-04-22 21:52 40.84103 3.21026 26390 ft 442 kts 119°
2026-04-22 21:52 40.82588 3.24539 25917 ft 437 kts 119°
2026-04-22 21:52 40.81092 3.28005 25458 ft 432 kts 120°
2026-04-22 21:52 40.79633 3.31380 25005 ft 427 kts 120°
2026-04-22 21:53 40.78149 3.34809 24566 ft 422 kts 120°
2026-04-22 21:53 40.76720 3.38109 24140 ft 417 kts 120°
2026-04-22 21:53 40.75287 3.41413 23721 ft 412 kts 120°
2026-04-22 21:53 40.73870 3.44682 23285 ft 408 kts 120°
2026-04-22 21:54 40.72464 3.47918 22858 ft 404 kts 120°
2026-04-22 21:54 40.71074 3.51117 22439 ft 400 kts 120°
2026-04-22 21:54 40.69688 3.54301 22021 ft 397 kts 120°
2026-04-22 21:54 40.68321 3.57438 21621 ft 394 kts 119°
2026-04-22 21:55 40.66977 3.60520 21204 ft 392 kts 120°
2026-04-22 21:55 40.65619 3.63630 20787 ft 390 kts 119°
2026-04-22 21:55 40.64260 3.66740 20378 ft 394 kts 119°
2026-04-22 21:55 40.62877 3.69902 19980 ft 401 kts 119°
2026-04-22 21:56 40.61476 3.73100 19547 ft 401 kts 119°
2026-04-22 21:56 40.60087 3.76271 19113 ft 396 kts 119°
2026-04-22 21:56 40.58732 3.79361 18682 ft 392 kts 119°
2026-04-22 21:56 40.57374 3.82452 18266 ft 387 kts 119°
2026-04-22 21:57 40.56031 3.85504 17865 ft 383 kts 119°
2026-04-22 21:57 40.55150 3.87507 17598 ft 381 kts 119°
2026-04-22 21:57 40.53829 3.90508 17197 ft 377 kts 119°
2026-04-22 21:57 40.52521 3.93474 16804 ft 373 kts 119°
2026-04-22 21:58 40.51209 3.96405 16407 ft 369 kts 123°
2026-04-22 21:58 40.48765 3.99404 15909 ft 362 kts 152°
2026-04-22 21:58 40.46437 4.00595 15637 ft 360 kts 166°
2026-04-22 21:58 40.44820 4.01185 15433 ft 366 kts 167°
2026-04-22 21:59 40.42336 4.02032 15100 ft 368 kts 168°
2026-04-22 21:59 40.39849 4.02869 14764 ft 368 kts 168°
2026-04-22 21:59 40.37367 4.03713 14440 ft 367 kts 168°
2026-04-22 21:59 40.34903 4.04565 14115 ft 365 kts 167°
2026-04-22 22:00 40.32484 4.05410 13796 ft 363 kts 167°
2026-04-22 22:00 40.30041 4.06270 13485 ft 361 kts 167°
2026-04-22 22:00 40.27619 4.07126 13171 ft 359 kts 167°
2026-04-22 22:00 40.25213 4.07976 12856 ft 357 kts 167°
2026-04-22 22:01 40.22819 4.08822 12546 ft 355 kts 167°
2026-04-22 22:01 40.20439 4.09663 12235 ft 353 kts 167°
2026-04-22 22:01 40.18076 4.10498 11929 ft 351 kts 167°
2026-04-22 22:01 40.15722 4.11329 11621 ft 349 kts 167°
2026-04-22 22:02 40.13380 4.12154 11314 ft 347 kts 167°
2026-04-22 22:02 40.11079 4.12964 11016 ft 345 kts 167°
2026-04-22 22:02 40.08757 4.13518 10673 ft 334 kts 185°
2026-04-22 22:02 40.06608 4.12710 10439 ft 316 kts 216°
2026-04-22 22:03 40.05169 4.10689 10243 ft 298 kts 247°
2026-04-22 22:03 40.04780 4.08147 10175 ft 281 kts 269°
2026-04-22 22:03 40.04382 4.05661 9932 ft 282 kts 248°
2026-04-22 22:03 40.03309 4.03540 9721 ft 286 kts 231°
2026-04-22 22:04 40.01855 4.01734 9476 ft 290 kts 223°
2026-04-22 22:04 40.00290 4.00072 9214 ft 290 kts 221°
2026-04-22 22:04 39.98675 3.98496 8951 ft 291 kts 217°
2026-04-22 22:04 39.96951 3.97089 8686 ft 291 kts 212°
2026-04-22 22:05 39.95138 3.95903 8428 ft 292 kts 206°
2026-04-22 22:05 39.93237 3.94940 8159 ft 292 kts 201°
2026-04-22 22:05 39.91284 3.94210 7903 ft 292 kts 196°
2026-04-22 22:05 39.89319 3.93686 7643 ft 291 kts 192°
2026-04-22 22:06 39.87304 3.93354 7373 ft 292 kts 186°
2026-04-22 22:06 39.85268 3.93302 7112 ft 292 kts 179°
2026-04-22 22:06 39.83253 3.93556 6863 ft 292 kts 172°
2026-04-22 22:06 39.81259 3.94082 6595 ft 291 kts 167°
2026-04-22 22:07 39.79317 3.94839 6279 ft 292 kts 161°
2026-04-22 22:07 39.77431 3.95819 6004 ft 291 kts 156°
2026-04-22 22:07 39.75651 3.96995 5736 ft 289 kts 150°
2026-04-22 22:07 39.73955 3.98384 5476 ft 287 kts 144°
2026-04-22 22:08 39.72380 3.99959 5217 ft 284 kts 139°
2026-04-22 22:08 39.70935 4.01697 4957 ft 281 kts 134°
2026-04-22 22:08 39.69634 4.03569 4709 ft 277 kts 128°
2026-04-22 22:08 39.68480 4.05558 4464 ft 274 kts 123°
2026-04-22 22:09 39.67480 4.07650 4218 ft 271 kts 118°
2026-04-22 22:09 39.66639 4.09792 3973 ft 267 kts 113°
2026-04-22 22:09 39.65939 4.12010 3736 ft 263 kts 108°
2026-04-22 22:09 39.65469 4.14257 3613 ft 251 kts 92°
2026-04-22 22:10 39.65847 4.16338 3517 ft 231 kts 55°
2026-04-22 22:10 39.67047 4.17561 3414 ft 214 kts 22°
2026-04-22 22:10 39.68392 4.18205 3317 ft 199 kts 18°
2026-04-22 22:10 39.69723 4.18693 3003 ft 195 kts 15°
2026-04-22 22:11 39.70990 4.19065 2982 ft 181 kts 12°
2026-04-22 22:11 39.72220 4.19326 2832 ft 181 kts
2026-04-22 22:11 39.73459 4.19557 2614 ft 178 kts
2026-04-22 22:11 39.74658 4.19775 2370 ft 168 kts
2026-04-22 22:12 39.75778 4.19978 2185 ft 160 kts
2026-04-22 22:12 39.76883 4.20181 1959 ft 157 kts
2026-04-22 22:12 39.77950 4.20375 1740 ft 157 kts
2026-04-22 22:12 39.79028 4.20566 1619 ft 154 kts
2026-04-22 22:13 39.80102 4.20689 1503 ft 156 kts
2026-04-22 22:13 39.81207 4.20821 1159 ft 161 kts
2026-04-22 22:13 39.82306 4.21047 889 ft 157 kts 11°
2026-04-22 22:13 39.83383 4.21285 677 ft 157 kts
2026-04-22 22:14 39.84465 4.21490 476 ft 156 kts 10°
2026-04-22 22:14 39.85522 4.21711 297 ft 146 kts
2026-04-22 22:14 39.86356 4.21887 302 ft 94 kts
2026-04-22 22:14 39.86759 4.21998 301 ft 38 kts 26°
2026-04-22 22:15 39.86889 4.22112 300 ft 12 kts 40°
2026-04-22 22:15 39.86936 4.22181 297 ft 4 kts 66°
2026-04-22 22:15 39.86933 4.22221 298 ft 4 kts 97°
2026-04-22 22:15 39.86929 4.22259 302 ft 7 kts 98°
2026-04-22 22:16 39.86910 4.22372 298 ft 16 kts 120°
2026-04-22 22:16 39.86802 4.22387 291 ft 17 kts 187°
2026-04-22 22:16 39.86686 4.22363 291 ft 17 kts 189°
2026-04-22 22:16 39.86571 4.22339 288 ft 17 kts 188°
2026-04-22 22:17 39.86452 4.22314 291 ft 17 kts 190°
2026-04-22 22:17 39.86338 4.22290 287 ft 16 kts 189°
2026-04-22 22:17 39.86273 4.22304 287 ft 8 kts 115°
2026-04-22 22:17 39.86264 4.22378 285 ft 3 kts 99°
2026-04-22 22:18 39.86262 4.22390 285 ft 0 kts 98°